This demonstration page uses our WeatherBlox Daily Observations layout. Learn more.

Left ArrowRight Arrow

Hourly Observations for August 24, 2021

Temp ( °F °C ) Dew Point ( °F °C ) Humidity (%) Winds ( mph kmh ) Pressure ( in mb ) Visibility ( mi km ) Precip ( " mm )
12:15 am 00:15 Clear 77 25 65 18.5 67 67 SSE 10 17 29.70 1006 10 16 0.00 0.00
12:35 am 00:35 Clear 77 24.9 65 18.1 66 66 SSE 9 15 29.70 1006 10 16 0.00 0.00
12:55 am 00:55 Clear 76 24.5 64 18 67 67 SSE 9 15 29.70 1006 10 16 0.00 0.00
1:15 am 01:15 Clear 76 24.2 64 17.8 68 68 SSE 8 13 29.70 1006 10 16 0.00 0.00
1:35 am 01:35 Clear 74 23.6 64 17.6 69 69 SSE 8 13 29.70 1006 10 16 0.00 0.00
1:55 am 01:55 Clear 74 23.1 64 17.6 71 71 SSE 8 13 29.70 1006 10 16 0.00 0.00
2:15 am 02:15 Clear 73 22.8 64 17.5 72 72 SSE 7 11 29.70 1006 10 16 0.00 0.00
2:35 am 02:35 Clear 73 22.5 64 17.5 73 73 SSE 8 13 29.71 1006 10 16 0.00 0.00
2:55 am 02:55 Clear 73 22.6 63 17.2 72 72 SSE 7 11 29.71 1006 10 16 0.00 0.00
3:15 am 03:15 Clear 73 22.5 63 17 71 71 S 7 11 29.72 1006 10 16 0.00 0.00
3:35 am 03:35 Clear 71 21.7 63 17.1 75 75 S 8 13 29.71 1006 10 16 0.00 0.00
3:55 am 03:55 Clear 71 21.5 63 17 76 76 S 6 9 29.72 1006 10 16 0.00 0.00
4:15 am 04:15 Clear 70 21.3 62 16.7 75 75 Calm 29.73 1007 10 16 0.00 0.00
4:35 am 04:35 Clear 67 19.4 63 17.3 88 88 SE 6 9 29.73 1007 10 16 0.00 0.00
4:55 am 04:55 Clear 68 20 63 17.2 84 84 SSE 3 6 29.72 1006 10 16 0.00 0.00
5:15 am 05:15 Clear 67 19.7 63 17 85 85 SSE 7 11 29.71 1006 10 16 0.00 0.00
5:35 am 05:35 Clear 67 19.7 63 17 85 85 SSE 6 9 29.71 1006 10 16 0.00 0.00
5:55 am 05:55 Clear 68 19.9 62 16.9 83 83 S 6 9 29.72 1006 10 16 0.00 0.00
6:10 am 06:10 Clear 67 19.5 62 16.8 84 84 Calm 29.74 1007 10 16 0.00 0.00
6:35 am 06:35 Clear 66 19 62 16.8 87 87 Calm 29.75 1007 10 16 0.00 0.00
6:55 am 06:55 Clear 65 18.4 62 16.5 89 89 Calm 29.76 1008 10 16 0.00 0.00
7:15 am 07:15 Sunny 65 18.2 62 16.9 92 92 Calm 29.75 1008 10 16 0.00 0.00
7:35 am 07:35 Sunny 66 18.9 64 17.5 92 92 Calm 29.77 1008 10 16 0.00 0.00
7:55 am 07:55 Sunny 68 19.9 64 18 89 89 Calm 29.76 1008 10 16 0.00 0.00
8:15 am 08:15 Sunny 70 21.3 64 17.8 81 81 SSE 3 6 29.75 1007 10 16 0.00 0.00
8:35 am 08:35 Sunny 71 21.9 64 17.8 78 78 Calm 29.74 1007 10 16 0.00 0.00
8:55 am 08:55 Sunny 74 23.3 64 17.7 71 71 SSW 6 9 29.73 1007 10 16 0.00 0.00
9:15 am 09:15 Sunny 76 24.5 65 18.1 68 68 SW 6 9 29.73 1007 10 16 0.00 0.00
9:35 am 09:35 Sunny 78 25.5 64 17.6 62 62 S 5 7 29.71 1006 10 16 0.00 0.00
9:55 am 09:55 Sunny 78 25.8 63 17.4 60 60 SSW 5 7 29.71 1006 10 16 0.00 0.00
10:15 am 10:15 Sunny 80 26.4 64 17.7 59 59 SSW 6 9 29.71 1006 10 16 0.00 0.00
10:35 am 10:35 Sunny 80 26.7 65 18.2 60 60 SSW 3 6 29.71 1006 10 16 0.00 0.00
10:55 am 10:55 Sunny 81 27.4 66 18.7 59 59 SW 3 6 29.72 1006 10 16 0.00 0.00
11:15 am 11:15 Sunny 82 27.7 65 18.3 57 57 Calm 29.71 1006 10 16 0.00 0.00
11:35 am 11:35 Sunny 83 28.2 66 18.7 56 56 Calm 29.70 1006 10 16 0.00 0.00
11:55 am 11:55 Sunny 84 28.8 68 20.1 59 59 Calm 29.70 1006 10 16 0.00 0.00
12:15 pm 12:15 Sunny 85 29.2 69 20.3 59 59 S 6 9 29.69 1006 10 16 0.00 0.00
12:35 pm 12:35 Sunny 85 29.5 70 21.1 61 61 SW 3 6 29.69 1005 10 16 0.00 0.00
12:55 pm 12:55 Sunny 86 30 70 21 59 59 Calm 29.69 1005 10 16 0.00 0.00
1:15 pm 13:15 Sunny 86 30.2 71 21.7 60 60 Calm 29.69 1005 10 16 0.00 0.00
1:35 pm 13:35 Sunny 88 31 73 22.7 61 61 ESE 3 6 29.68 1005 10 16 0.00 0.00
1:55 pm 13:55 Sunny 88 31.1 70 21.3 56 56 SSE 7 11 29.68 1005 10 16 0.00 0.00
2:15 pm 14:15 Sunny 89 31.4 71 21.8 57 57 SSE 8 13 29.68 1005 10 16 0.00 0.00
2:35 pm 14:35 Sunny 89 31.5 70 21.2 54 54 SSE 7 11 29.68 1005 10 16 0.00 0.00
2:55 pm 14:55 Sunny 89 31.8 70 21.1 53 53 SSE 7 11 29.66 1005 10 16 0.00 0.00
3:15 pm 15:15 Sunny 90 32 70 21 52 52 SE 6 9 29.66 1005 10 16 0.00 0.00
3:35 pm 15:35 Sunny 90 32.1 71 21.6 54 54 ESE 7 11 29.66 1004 10 16 0.00 0.00
3:55 pm 15:55 Sunny 90 32.3 70 20.9 51 51 E 3 6 29.66 1004 10 16 0.00 0.00
4:15 pm 16:15 Sunny 91 32.7 69 20.8 50 50 SSE 3 6 29.66 1004 10 16 0.00 0.00
4:35 pm 16:35 Sunny 91 33 67 19.6 45 45 Calm 29.66 1004 10 16 0.00 0.00
4:55 pm 16:55 Sunny 91 33 71 21.5 51 51 ESE 3 6 29.65 1004 10 16 0.00 0.00
5:15 pm 17:15 Sunny 91 32.6 72 22.2 54 54 ENE 7 11 29.66 1004 10 16 0.00 0.00
5:35 pm 17:35 Sunny 90 32 74 23.2 60 60 ENE 6 9 29.66 1005 10 16 0.00 0.00
5:55 pm 17:55 Sunny 89 31.6 74 23.5 62 62 NE 5 7 29.67 1005 10 16 0.00 0.00
6:15 pm 18:15 Sunny 89 31.5 74 23.2 61 61 NE 5 7 29.67 1005 10 16 0.00 0.00
6:35 pm 18:35 Sunny 88 31 75 24 66 66 NNE 6 9 29.67 1005 10 16 0.00 0.00
6:55 pm 18:55 Sunny 86 30.2 75 24 69 69 NNE 6 9 29.69 1005 10 16 0.00 0.00
7:15 pm 19:15 Sunny 85 29.6 75 24.1 72 72 NNE 6 9 29.69 1005 10 16 0.00 0.00
7:35 pm 19:35 Sunny 83 28.5 76 24.4 79 79 ENE 7 11 29.71 1006 10 16 0.00 0.00
7:55 pm 19:55 Sunny 82 27.8 75 24 80 80 ENE 7 11 29.72 1006 10 16 0.00 0.00
8:15 pm 20:15 Sunny 81 27.3 75 23.9 82 82 E 9 15 29.73 1007 10 16 0.00 0.00
8:35 pm 20:35 Clear 81 27.3 73 23 77 77 E 9 15 29.73 1007 10 16 0.00 0.00
8:55 pm 20:55 Clear 81 27.1 73 22.5 76 76 ENE 9 15 29.73 1007 10 16 0.00 0.00
9:15 pm 21:15 Clear 79 26.3 73 22.5 80 80 ENE 9 15 29.76 1008 10 16 0.00 0.00
9:35 pm 21:35 Clear 78 25.3 73 22.7 86 86 NE 7 11 29.77 1008 10 16 0.00 0.00
9:55 pm 21:55 Clear 78 25.3 73 22.5 85 85 ENE 8 13 29.78 1009 10 16 0.00 0.00
10:15 pm 22:15 Clear 77 24.8 73 22.6 88 88 NNE 5 7 29.81 1009 10 16 0.00 0.00
10:35 pm 22:35 Clear 76 24.3 73 22.6 90 90 NNE 6 9 29.81 1010 10 16 0.00 0.00
10:55 pm 22:55 Clear 75 23.7 73 22.5 93 93 NNE 7 11 29.82 1010 10 16 0.00 0.00
11:15 pm 23:15 Clear 76 24.3 73 22.8 91 91 NNE 6 9 29.80 1009 10 16 0.00 0.00
11:35 pm 23:35 Clear 76 24.3 73 22.5 90 90 NE 6 9 29.80 1009 10 16 0.00 0.00
11:55 pm 23:55 Clear 75 24 72 22.2 90 90 N 6 9 29.80 1009 10 16 0.00 0.00

Powered by AerisWeather